When you browse on this site, cookies collect data to enhance your experience and personalize the content and advertising you see.
Visit our Privacy Policy to learn more. By continuing to use the site, you agree to this use of cookies and data.
  • In Lithuania
  • List of Countries
  • For 7 days
  • Water Temperature
  • Satellite Maps
  • Weather Map
  • Weather Widgets
  • user-avatar
    Login

    Hourly Weather Novgorodskoe

    Today, 19 March, Tuesday

    Time Temperature Precipitation Wind Pressure Humidity
    00:00 -1°C° 0 mm 6 mps 750 mmHg 98%
    01:00 -2°C° 0 mm 6 mps 749 mmHg 97%
    02:00 -2°C° 0 mm 6 mps 749 mmHg 95%
    03:00 -2°C° 0 mm 6 mps 749 mmHg 93%
    04:00 -2°C° 0 mm 6 mps 749 mmHg 92%
    05:00 -2°C° 0 mm 6 mps 749 mmHg 91%
    06:00 -3°C° 0 mm 6 mps 748 mmHg 90%
    07:00 -2°C° 0 mm 6 mps 748 mmHg 90%
    08:00 -2°C° 0 mm 6 mps 749 mmHg 91%
    09:00 -1°C° 0 mm 6 mps 749 mmHg 91%
    10:00 -1°C° 0 mm 6 mps 749 mmHg 93%
    11:00 -1°C° 0 mm 6 mps 749 mmHg 96%
    12:00 -1°C° 0 mm 6 mps 749 mmHg 99%
    13:00 -1°C° 0 mm 6 mps 749 mmHg 98%
    14:00 0°C° 0 mm 5 mps 749 mmHg 98%
    15:00 +1°C° 0 mm 5 mps 749 mmHg 98%
    16:00 0°C° 0 mm 5 mps 749 mmHg 98%
    17:00 0°C° 0 mm 4 mps 749 mmHg 97%
    18:00 0°C° 0 mm 4 mps 749 mmHg 97%
    19:00 0°C° 0 mm 4 mps 750 mmHg 96%
    20:00 0°C° 0 mm 4 mps 750 mmHg 95%
    21:00 0°C° 0 mm 4 mps 750 mmHg 95%
    22:00 0°C° 0.1 mm 4 mps 750 mmHg 96%
    23:00 +1°C° 0.1 mm 3 mps 750 mmHg 96%

    Tomorrow, 20 March, Wednesday

    Time Temperature Precipitation Wind Pressure Humidity
    00:00 +1°C° 0.1 mm 3 mps 750 mmHg 97%
    01:00 +1°C° 0.5 mm 3 mps 749 mmHg 98%
    02:00 +1°C° 0.5 mm 3 mps 749 mmHg 98%
    03:00 +1°C° 0.5 mm 3 mps 749 mmHg 99%
    04:00 0°C° 0.3 mm 3 mps 749 mmHg 99%
    05:00 +1°C° 0.3 mm 2 mps 749 mmHg 99%
    06:00 +1°C° 0.3 mm 2 mps 749 mmHg 98%
    07:00 +1°C° 0.1 mm 2 mps 749 mmHg 99%
    08:00 +1°C° 0.1 mm 2 mps 749 mmHg 99%
    09:00 +1°C° 0.1 mm 2 mps 750 mmHg 99%
    10:00 +2°C° 0 mm 2 mps 750 mmHg 99%
    11:00 +1°C° 0 mm 3 mps 750 mmHg 98%
    12:00 +1°C° 0 mm 3 mps 750 mmHg 98%
    13:00 +1°C° 0 mm 3 mps 750 mmHg 98%
    14:00 +1°C° 0 mm 3 mps 750 mmHg 98%
    15:00 +1°C° 0 mm 3 mps 750 mmHg 98%
    16:00 0°C° 0 mm 3 mps 750 mmHg 97%
    17:00 0°C° 0 mm 3 mps 750 mmHg 97%
    18:00 -1°C° 0 mm 3 mps 750 mmHg 96%
    19:00 -1°C° 0 mm 3 mps 750 mmHg 94%
    20:00 -1°C° 0 mm 3 mps 750 mmHg 93%
    21:00 -2°C° 0 mm 3 mps 750 mmHg 91%
    22:00 -2°C° 0 mm 3 mps 750 mmHg 91%
    23:00 -2°C° 0 mm 3 mps 750 mmHg 90%

    Day after tomorrow, 21 March, Thursday

    Time Temperature Precipitation Wind Pressure Humidity
    00:00 -4°C° 0 mm 3 mps 750 mmHg 90%
    01:00 -2°C° 0 mm 2 mps 750 mmHg 90%
    02:00 -2°C° 0 mm 2 mps 749 mmHg 89%
    03:00 -2°C° 0 mm 2 mps 749 mmHg 89%
    04:00 -2°C° 0 mm 3 mps 749 mmHg 89%
    05:00 -4°C° 0 mm 3 mps 748 mmHg 89%
    06:00 -4°C° 0 mm 3 mps 748 mmHg 88%
    07:00 -2°C° 0 mm 3 mps 748 mmHg 87%
    08:00 -2°C° 0 mm 3 mps 747 mmHg 87%
    09:00 -2°C° 0 mm 4 mps 747 mmHg 86%
    10:00 -2°C° 0.2 mm 4 mps 747 mmHg 89%
    11:00 -1°C° 0.2 mm 3 mps 747 mmHg 91%
    12:00 -1°C° 0.2 mm 3 mps 746 mmHg 93%
    13:00 0°C° 0.1 mm 3 mps 746 mmHg 94%
    14:00 +1°C° 0.1 mm 2 mps 746 mmHg 96%
    15:00 +1°C° 0.1 mm 2 mps 746 mmHg 97%
    16:00 +1°C° 0 mm 2 mps 746 mmHg 96%
    17:00 +2°C° 0 mm 1 mps 746 mmHg 95%
    18:00 +2°C° 0 mm 1 mps 746 mmHg 94%
    19:00 +2°C° 0 mm 1 mps 747 mmHg 95%
    20:00 +2°C° 0 mm 1 mps 747 mmHg 95%
    21:00 -1°C° 0 mm 2 mps 748 mmHg 95%
    22:00 -1°C° 0 mm 2 mps 748 mmHg 95%
    23:00 -1°C° 0 mm 2 mps 748 mmHg 95%

    22 March, Friday

    Time Temperature Precipitation Wind Pressure Humidity
    00:00 -1°C° 0 mm 2 mps 748 mmHg 95%
    01:00 -1°C° 0 mm 2 mps 748 mmHg 95%
    02:00 -2°C° 0 mm 2 mps 749 mmHg 95%
    03:00 -2°C° 0 mm 2 mps 749 mmHg 95%
    04:00 -2°C° 0 mm 2 mps 749 mmHg 95%
    05:00 -2°C° 0 mm 2 mps 749 mmHg 95%
    06:00 -3°C° 0 mm 2 mps 749 mmHg 95%
    07:00 -2°C° 0 mm 2 mps 749 mmHg 94%
    08:00 -2°C° 0 mm 2 mps 749 mmHg 93%
    09:00 -1°C° 0 mm 2 mps 749 mmHg 92%
    10:00 -1°C° 0 mm 2 mps 749 mmHg 92%
    11:00 +1°C° 0 mm 2 mps 749 mmHg 93%
    12:00 0°C° 0 mm 3 mps 749 mmHg 93%
    13:00 +1°C° 0 mm 3 mps 748 mmHg 91%
    14:00 +1°C° 0 mm 3 mps 748 mmHg 90%
    15:00 0°C° 0 mm 4 mps 747 mmHg 88%
    16:00 0°C° 0 mm 4 mps 747 mmHg 87%
    17:00 0°C° 0 mm 5 mps 746 mmHg 87%
    18:00 0°C° 0 mm 5 mps 746 mmHg 86%
    19:00 0°C° 0.1 mm 5 mps 745 mmHg 88%
    20:00 -1°C° 0.1 mm 6 mps 745 mmHg 91%
    21:00 +1°C° 0.1 mm 6 mps 744 mmHg 93%
    22:00 +1°C° 0.1 mm 6 mps 744 mmHg 94%
    23:00 0°C° 0.1 mm 7 mps 743 mmHg 95%

    23 March, Saturday

    Time Temperature Precipitation Wind Pressure Humidity
    00:00 0°C° 0.1 mm 7 mps 742 mmHg 96%
    01:00 0°C° 0.1 mm 7 mps 741 mmHg 93%
    02:00 +1°C° 0.1 mm 6 mps 741 mmHg 90%
    03:00 +1°C° 0.1 mm 6 mps 741 mmHg 88%
    04:00 -1°C° 0 mm 6 mps 741 mmHg 85%
    05:00 -2°C° 0 mm 6 mps 741 mmHg 82%
    06:00 -3°C° 0 mm 7 mps 741 mmHg 80%
    07:00 -3°C° 0 mm 7 mps 742 mmHg 78%
    08:00 -2°C° 0 mm 8 mps 742 mmHg 76%
    09:00 -2°C° 0 mm 8 mps 742 mmHg 74%
    10:00 -2°C° 0 mm 8 mps 742 mmHg 73%
    11:00 -1°C° 0 mm 8 mps 742 mmHg 71%
    12:00 -1°C° 0 mm 8 mps 742 mmHg 70%
    13:00 -1°C° 0 mm 7 mps 742 mmHg 69%
    14:00 0°C° 0 mm 7 mps 742 mmHg 67%
    15:00 0°C° 0 mm 7 mps 742 mmHg 66%
    16:00 +1°C° 0 mm 6 mps 742 mmHg 69%
    17:00 0°C° 0 mm 5 mps 742 mmHg 71%
    18:00 0°C° 0 mm 4 mps 742 mmHg 74%
    19:00 0°C° 0 mm 4 mps 741 mmHg 76%
    20:00 0°C° 0 mm 4 mps 741 mmHg 77%
    21:00 -1°C° 0 mm 4 mps 741 mmHg 78%
    22:00 -1°C° 0.1 mm 4 mps 741 mmHg 82%
    23:00 -1°C° 0.1 mm 4 mps 740 mmHg 85%

    24 March, Sunday

    Time Temperature Precipitation Wind Pressure Humidity
    00:00 0°C° 0.1 mm 3 mps 740 mmHg 88%
    01:00 0°C° 0 mm 3 mps 740 mmHg 89%
    02:00 0°C° 0 mm 3 mps 739 mmHg 90%
    03:00 0°C° 0 mm 3 mps 739 mmHg 91%
    04:00 -1°C° 0 mm 3 mps 739 mmHg 92%
    05:00 -2°C° 0 mm 4 mps 740 mmHg 93%
    06:00 -2°C° 0 mm 4 mps 740 mmHg 94%
    07:00 -1°C° 0 mm 4 mps 741 mmHg 89%
    08:00 -1°C° 0 mm 5 mps 741 mmHg 84%
    09:00 -1°C° 0 mm 5 mps 742 mmHg 80%
    10:00 0°C° 0 mm 5 mps 742 mmHg 76%
    11:00 0°C° 0 mm 5 mps 742 mmHg 73%
    12:00 0°C° 0 mm 5 mps 742 mmHg 69%
    13:00 +1°C° 0 mm 5 mps 742 mmHg 68%
    14:00 +1°C° 0 mm 5 mps 742 mmHg 66%
    15:00 +2°C° 0 mm 5 mps 742 mmHg 65%
    16:00 +1°C° 0 mm 5 mps 742 mmHg 68%
    17:00 +1°C° 0 mm 4 mps 742 mmHg 71%
    18:00 +1°C° 0 mm 3 mps 742 mmHg 74%
    19:00 +1°C° 0 mm 3 mps 742 mmHg 76%
    20:00 +2°C° 0 mm 2 mps 742 mmHg 78%
    21:00 +1°C° 0 mm 2 mps 741 mmHg 80%
    22:00 +1°C° 0 mm 2 mps 741 mmHg 80%
    23:00 +1°C° 0 mm 2 mps 741 mmHg 80%
    Show more